Regional Weather Roundup
Issued by NWS

Home | Current Version | Previous Version | Graphics & Text | Print | Product List | Glossary On
Versions: 1 2 3 4 5 6 7 8 9 10 11 12 13 14 15 16 17 18 19 20 21 22 23 24 25 26 27 28 29 30 31 32 33 34 35 36 37 38 39 40 41 42 43 44 45 46 47 48 49 50
000
ASUS43 KTOP 170759
RWRKS

WEATHER ROUNDUP FOR KANSAS
NATIONAL WEATHER SERVICE GOODLAND KS
200 AM CST FRI NOV 17 2017

NOTE:  "FAIR" INDICATES FEW OR NO CLOUDS BELOW 12,000 FEET WITH NO
SIGNIFICANT WEATHER AND/OR OBSTRUCTIONS TO VISIBILITY.

KSZ001>006-013>018-027>032-041>047-170900-
NORTHWEST KANSAS

CITY           SKY/WX    TMP DP  RH WIND       PRES   REMARKS
GOODLAND       CLOUDY    50  29  44 W8        29.67F
HAYS           CLOUDY    52  49  89 S14       29.71F
HILL CITY      CLOUDY    51  47  86 S13       29.67F
RUSSELL        CLOUDY    54  53  97 S23G33    29.71S
$$

KSZ061>065-074>080-084>089-170900-
SOUTHWEST KANSAS

CITY           SKY/WX    TMP DP  RH WIND       PRES   REMARKS
DODGE CITY     CLOUDY    49  46  90 S17       29.73F FOG
GARDEN CITY    CLOUDY    45  42  89 S13       29.72F
LIBERAL        CLOUDY    46  41  82 SW9       29.76F
$$

KSZ066>073-081>083-090>101-170900-
SOUTHEAST KANSAS

CITY           SKY/WX    TMP DP  RH WIND       PRES   REMARKS
CHANUTE        CLOUDY    58  50  75 S15       29.92F
COFFEYVILLE    CLOUDY    59  52  77 S10       29.92F
HUTCHINSON     CLOUDY    59  56  89 S18G28    29.78F
MEDICINE LODGE   N/A     55  55 100 S14G25    29.79F
NEWTON         CLOUDY    58  55  90 S21G28    29.81F
PARSONS          N/A    N/A N/A N/A MISG      29.92F
WICHITA INTL   CLOUDY    58  57  97 S20       29.81F
WICHITA JABRA  CLOUDY    58  57  97 S18G25    29.82F
WICHITA MCCONL CLOUDY    58  55  89 S23       29.82F
WINFIELD       CLOUDY    59  57  93 S16       29.88S
$$

KSZ007>012-019>026-033>040-048>060-102>105-170900-
NORTHEAST KANSAS

CITY           SKY/WX    TMP DP  RH WIND       PRES   REMARKS
CONCORDIA      CLOUDY    56  51  84 S14       29.74F
EMPORIA        CLOUDY    57  50  77 S16       29.86F
LAWRENCE       CLOUDY    53  39  59 SE12      29.89F
MANHATTAN      CLOUDY    59  51  75 S15G22    29.79F
OLATHE IND     CLOUDY    54  42  64 S9        29.92S
OLATHE EXE     CLOUDY    51  40  65 S9        29.93R
SALINA         CLOUDY    60  55  83 S17G26    29.75F
TOPEKA BILLARD CLOUDY    54  43  66 SE10      29.86F
TOPEKA FORBES  CLOUDY    57  46  66 SE14      29.86F
$$




USA.gov is the U.S. government's official web portal to all federal, state and local government web resources and services.